"startDT [UTC]","vpos","CH4 [ppm]","stdev(CH4) [ppm]","CO2 [ppm]","stdev(CO2) [ppm]","H2O [ppm]","stdev(H2O)","p_LGR [torr]","T_LGR [C]","mt1_LGR [us]","mt2_LGR [us]","T_ECpre [C]","T_EC1 [C]","T_EC2 [C]","p_inlet [hPa]","p_in [hPa]","p_out [hPa]","T_inlet [C]","RH_inlet [%]","dwpt_inlet [C]","T_vent [C]","RH_vent [%]","dwpt_vent [C]","flow_vent [l min-1]","flow_inlet [l min-1]","dwpt_sample [C]","T_room [C]"
2012-04-02 00:00:00,0.0,1.9147,0.0011,401.14,0.25,29.2,29.5,138.11,29.04,24.62,36.33,0.04,-272.74,-272.74,-54,560,-937,24.8,2.3,-26.2,24.8,2.4,-25.8,5.73,2.46,-28.0,27.3
2012-04-02 00:01:00,0.0,1.9152,0.0011,401.14,0.20,25.9,28.7,138.11,29.04,24.62,36.33,0.04,-272.74,-272.74,-54,560,-937,24.8,2.3,-26.1,24.8,2.4,-25.7,5.73,2.26,-28.1,27.3
2012-04-02 00:02:00,0.0,1.9152,0.0010,401.11,0.19,23.3,26.9,138.11,29.05,24.62,36.33,0.04,-272.74,-272.74,-54,560,-937,24.8,2.4,-25.9,24.8,2.4,-25.6,5.73,2.46,-28.1,27.4
2012-04-02 00:03:00,0.0,1.9149,0.0010,401.10,0.20,25.0,31.8,138.11,29.05,24.62,36.33,0.04,-272.74,-272.74,-54,560,-937,24.8,2.4,-25.9,24.8,2.4,-25.5,5.73,2.37,-28.1,27.3
2012-04-02 00:04:00,0.0,1.9149,0.0010,401.03,0.20,22.1,28.0,138.11,29.05,24.62,36.34,0.04,-272.74,-272.74,-54,560,-937,24.8,2.4,-25.9,24.8,2.4,-25.6,5.73,2.30,-28.1,27.4
2012-04-02 00:05:00,0.0,1.9159,0.0014,401.10,0.22,21.2,24.8,138.11,29.05,24.62,36.33,0.04,-272.74,-272.74,-55,560,-937,24.8,2.4,-25.9,24.8,2.5,-25.5,5.73,2.49,-28.1,27.4
2012-04-02 00:06:00,0.0,1.9169,0.0008,400.99,0.22,25.3,27.2,138.11,29.05,24.62,36.34,0.04,-272.74,-272.74,-54,560,-937,24.8,2.4,-25.8,24.8,2.5,-25.4,5.73,2.29,-28.1,27.3
2012-04-02 00:07:00,0.0,1.9159,0.0010,401.14,0.21,26.0,28.3,138.11,29.06,24.62,36.33,0.04,-272.74,-272.74,-54,560,-937,24.8,2.4,-25.8,24.8,2.5,-25.4,5.73,2.38,-28.1,27.3
2012-04-02 00:08:00,0.0,1.9165,0.0009,401.11,0.20,23.5,28.3,138.11,29.06,24.62,36.33,0.04,-272.74,-272.74,-55,560,-937,24.8,2.4,-25.8,24.8,2.5,-25.4,5.73,2.45,-28.1,27.3
2012-04-02 00:09:00,0.0,1.9164,0.0009,401.11,0.20,18.7,24.4,138.11,29.06,24.62,36.33,0.04,-272.74,-272.74,-54,561,-937,24.8,2.4,-25.7,24.8,2.5,-25.3,5.73,2.26,-28.1,27.3
2012-04-02 00:10:00,0.0,1.9167,0.0011,401.07,0.21,28.7,29.1,138.11,29.07,24.62,36.33,0.04,-272.74,-272.74,-54,560,-937,24.9,2.4,-25.8,24.8,2.5,-25.4,5.73,2.47,-28.1,27.3
2012-04-02 00:11:00,0.0,1.9156,0.0011,401.12,0.19,32.1,29.5,138.11,29.07,24.62,36.33,0.04,-272.74,-272.74,-55,560,-937,24.8,2.4,-25.8,24.8,2.5,-25.4,5.73,2.36,-28.1,27.3
2012-04-02 00:12:00,0.0,1.9152,0.0010,401.13,0.22,24.2,30.6,138.10,29.07,24.62,36.33,0.04,-272.74,-272.74,-54,561,-937,24.8,2.4,-25.9,24.8,2.5,-25.5,5.73,2.30,-28.1,27.4
2012-04-02 00:13:00,0.0,1.9165,0.0011,401.07,0.20,24.4,28.8,138.11,29.07,24.62,36.34,0.04,-272.74,-272.74,-54,560,-937,24.9,2.4,-25.9,24.8,2.4,-25.5,5.73,2.49,-28.1,27.3
2012-04-02 00:14:00,0.0,1.9154,0.0011,401.12,0.22,23.1,26.5,138.11,29.08,24.62,36.33,0.04,-272.74,-272.74,-55,560,-937,24.9,2.3,-26.0,24.8,2.4,-25.7,5.73,2.28,-28.1,27.4
2012-04-02 00:15:00,0.0,1.9150,0.0010,401.22,0.21,23.7,33.6,138.11,29.08,24.62,36.33,0.04,-272.74,-272.74,-54,561,-937,24.8,2.3,-26.1,24.8,2.4,-25.8,5.73,2.40,-28.1,27.4
2012-04-02 00:16:00,0.0,1.9156,0.0009,401.14,0.23,21.6,25.6,138.11,29.08,24.62,36.34,0.04,-272.74,-272.74,-54,560,-937,24.9,2.3,-26.2,24.8,2.4,-26.0,5.73,2.43,-28.1,27.4
2012-04-02 00:17:00,0.0,1.9160,0.0013,401.20,0.23,28.1,32.7,138.11,29.08,24.62,36.33,0.04,-272.74,-272.74,-55,560,-937,24.9,2.2,-26.4,24.8,2.3,-26.1,5.73,2.26,-28.1,27.5
2012-04-02 00:18:00,0.0,1.9148,0.0011,401.24,0.21,24.9,30.6,138.10,29.09,24.62,36.33,0.04,-272.74,-272.74,-54,560,-937,24.8,2.2,-26.7,24.8,2.3,-26.2,5.73,2.49,-28.0,27.5
2012-04-02 00:19:00,0.0,1.9165,0.0012,401.19,0.21,23.0,27.9,138.10,29.09,24.62,36.33,0.04,-272.74,-272.74,-54,560,-937,24.9,2.2,-26.9,24.8,2.2,-26.5,5.73,2.32,-28.0,27.4
2012-04-02 00:20:00,0.0,1.9178,0.0011,401.12,0.23,26.8,30.0,138.10,29.09,24.62,36.34,0.04,-272.74,-272.74,-55,560,-937,24.9,2.1,-27.0,24.8,2.2,-26.6,5.73,2.35,-28.0,27.5
2012-04-02 00:21:00,0.0,1.9169,0.0011,401.12,0.22,33.8,28.0,138.11,29.09,24.62,36.33,0.04,-272.74,-272.74,-55,560,-937,24.9,2.1,-26.9,24.8,2.2,-26.5,5.73,2.47,-28.0,27.4
2012-04-02 00:22:00,0.0,1.9176,0.0011,401.06,0.22,30.2,30.2,138.11,29.09,24.62,36.34,0.04,-272.74,-272.74,-54,561,-937,24.9,2.1,-27.0,24.8,2.2,-26.6,5.73,2.26,-27.9,27.5
2012-04-02 00:23:00,0.0,1.9178,0.0010,401.21,0.22,31.4,27.1,138.11,29.10,24.62,36.33,0.04,-272.74,-272.74,-55,560,-937,24.9,2.1,-27.0,24.9,2.2,-26.5,5.73,2.44,-27.9,27.5
2012-04-02 00:24:00,0.0,1.9187,0.0009,401.12,0.18,32.2,29.3,138.11,29.10,24.62,36.33,0.04,-272.74,-272.74,-55,561,-937,24.9,2.2,-26.8,24.9,2.2,-26.5,5.73,2.39,-27.9,27.5
2012-04-02 00:25:00,0.0,1.9187,0.0011,401.19,0.23,34.7,36.5,138.11,29.10,24.62,36.33,0.04,-272.74,-272.74,-54,561,-937,24.9,2.2,-26.7,24.9,2.3,-26.3,5.73,2.28,-27.9,27.5
2012-04-02 00:26:00,0.0,1.9181,0.0010,401.14,0.22,33.1,31.5,138.10,29.11,24.62,36.34,0.04,-272.74,-272.74,-55,561,-937,24.9,2.2,-26.6,24.9,2.3,-26.2,5.73,2.49,-27.9,27.5
2012-04-02 00:27:00,0.0,1.9203,0.0012,401.01,0.22,26.4,29.6,138.10,29.11,24.62,36.34,0.04,-272.74,-272.74,-55,561,-937,24.9,2.2,-26.6,24.9,2.3,-26.2,5.73,2.28,-27.8,27.5
2012-04-02 00:28:00,0.0,1.9219,0.0012,401.10,0.21,40.9,35.8,138.10,29.11,24.62,36.33,0.04,-272.74,-272.74,-54,560,-937,24.9,2.2,-26.5,24.9,2.3,-26.1,5.73,2.40,-27.8,27.5
2012-04-02 00:29:00,0.0,1.9217,0.0011,400.97,0.19,34.9,32.0,138.10,29.12,24.63,36.34,0.04,-272.73,-272.74,-55,560,-937,24.9,2.3,-26.3,24.9,2.4,-25.9,5.73,2.44,-27.8,27.4
2012-04-02 00:30:00,0.0,1.9214,0.0013,401.09,0.23,35.8,32.0,138.10,29.12,24.62,36.34,0.04,-272.74,-272.74,-55,561,-937,24.9,2.3,-26.1,24.9,2.4,-25.8,5.73,2.26,-27.8,27.5
2012-04-02 00:31:00,0.0,1.9211,0.0012,401.05,0.22,38.9,33.9,138.10,29.12,24.62,36.34,0.04,-272.74,-272.74,-54,561,-938,24.9,2.3,-26.0,24.9,2.4,-25.7,5.73,2.48,-27.8,27.5
2012-04-02 00:32:00,0.0,1.9205,0.0009,401.03,0.20,32.9,32.0,138.10,29.13,24.62,36.34,0.04,-272.74,-272.74,-55,560,-938,24.9,2.3,-26.0,24.9,2.4,-25.6,5.73,2.33,-27.8,27.4
2012-04-02 00:33:00,0.0,1.9218,0.0009,401.04,0.23,36.2,32.8,138.10,29.13,24.62,36.33,0.04,-272.74,-272.74,-55,561,-937,24.9,2.4,-25.9,24.9,2.4,-25.6,5.73,2.35,-27.7,27.4
2012-04-02 00:34:00,0.0,1.9221,0.0010,400.97,0.20,43.8,38.6,138.10,29.13,24.62,36.34,0.04,-272.74,-272.74,-54,561,-938,24.9,2.4,-25.9,24.9,2.4,-25.5,5.73,2.47,-27.7,27.5
2012-04-02 00:35:00,0.0,1.9222,0.0010,401.03,0.19,30.9,28.3,138.10,29.14,24.63,36.34,0.04,-272.74,-272.74,-55,560,-937,24.9,2.3,-26.0,24.9,2.4,-25.6,5.73,2.26,-27.7,27.5
2012-04-02 00:36:00,0.0,1.9225,0.0012,401.02,0.22,43.1,34.0,138.10,29.14,24.62,36.34,0.04,-272.74,-272.74,-55,561,-937,24.9,2.3,-25.9,24.9,2.4,-25.6,5.73,2.46,-27.7,27.5
2012-04-02 00:37:00,0.0,1.9219,0.0010,401.06,0.22,37.8,31.9,138.10,29.15,24.62,36.34,0.04,-272.74,-272.74,-54,561,-938,24.9,2.4,-25.8,24.9,2.4,-25.5,5.73,2.37,-27.7,27.6
2012-04-02 00:38:00,0.0,1.9216,0.0010,401.05,0.25,42.8,39.2,138.10,29.15,24.62,36.34,0.04,-272.74,-272.74,-55,560,-937,24.9,2.4,-25.9,24.9,2.4,-25.5,5.73,2.31,-27.6,27.6
2012-04-02 00:39:00,0.0,1.9210,0.0011,401.08,0.21,40.0,31.6,138.10,29.15,24.62,36.34,0.04,-272.74,-272.74,-55,561,-937,24.9,2.4,-25.7,24.9,2.5,-25.4,5.73,2.48,-27.6,27.6
2012-04-02 00:40:00,0.0,1.9208,0.0010,401.07,0.24,54.2,41.4,138.10,29.16,24.63,36.34,0.04,-272.73,-272.74,-54,561,-937,24.9,2.4,-25.8,24.9,2.5,-25.4,5.73,2.26,-27.6,27.5
2012-04-02 00:41:00,0.0,1.9214,0.0011,401.08,0.23,45.5,32.1,138.10,29.16,24.62,36.34,0.04,-272.74,-272.74,-55,561,-937,24.9,2.4,-25.8,24.9,2.5,-25.4,5.73,2.44,-27.6,27.4
2012-04-02 00:42:00,0.0,1.9210,0.0010,400.95,0.21,46.1,31.9,138.10,29.16,24.62,36.35,0.04,-272.74,-272.74,-55,561,-937,24.9,2.4,-25.9,24.9,2.5,-25.4,5.73,2.39,-27.6,27.5
2012-04-02 00:43:00,0.0,1.9216,0.0009,401.08,0.21,51.5,30.4,138.10,29.17,24.63,36.34,0.04,-272.74,-272.74,-54,561,-937,24.9,2.4,-25.9,24.9,2.4,-25.5,5.73,2.29,-27.5,27.5
2012-04-02 00:44:00,0.0,1.9222,0.0010,401.06,0.24,51.6,40.1,138.10,29.17,24.62,36.34,0.04,-272.74,-272.74,-55,561,-937,24.9,2.4,-25.9,24.9,2.4,-25.4,5.73,2.49,-27.5,27.5
2012-04-02 00:45:00,0.0,1.9221,0.0010,400.94,0.21,46.2,32.5,138.10,29.18,24.62,36.34,0.04,-272.74,-272.74,-55,561,-937,24.9,2.4,-25.8,24.9,2.4,-25.5,5.73,2.28,-27.5,27.5
2012-04-02 00:46:00,0.0,1.9218,0.0011,400.99,0.19,53.8,33.1,138.10,29.18,24.62,36.34,0.04,-272.74,-272.74,-54,561,-937,24.9,2.4,-25.8,24.9,2.5,-25.3,5.73,2.41,-27.5,27.5
2012-04-02 00:47:00,0.0,1.9216,0.0009,401.00,0.23,49.2,36.2,138.10,29.19,24.62,36.34,0.04,-272.74,-272.74,-55,561,-938,24.9,2.4,-25.7,24.9,2.5,-25.3,5.73,2.41,-27.4,27.5
2012-04-02 00:48:00,0.0,1.9207,0.0010,401.14,0.20,46.3,32.9,138.10,29.19,24.62,36.34,0.04,-272.74,-272.74,-55,561,-938,24.9,2.4,-25.8,24.9,2.5,-25.4,5.73,2.28,-27.4,27.5
2012-04-02 00:49:00,0.0,1.9203,0.0011,401.02,0.21,51.1,34.2,138.10,29.19,24.63,36.35,0.04,-272.74,-272.74,-54,561,-937,25.0,2.4,-25.8,24.9,2.5,-25.4,5.73,2.49,-27.4,27.6
2012-04-02 00:50:00,0.0,1.9200,0.0012,401.17,0.21,41.5,29.2,138.10,29.20,24.62,36.35,0.04,-272.74,-272.74,-55,561,-938,25.0,2.3,-26.0,25.0,2.4,-25.5,5.73,2.31,-27.4,27.7
2012-04-02 00:51:00,0.0,1.9196,0.0012,401.15,0.23,45.2,36.4,138.10,29.20,24.62,36.34,0.04,-272.74,-272.74,-55,561,-937,25.0,2.3,-26.0,25.0,2.4,-25.6,5.73,2.37,-27.4,27.7
2012-04-02 00:52:00,0.0,1.9201,0.0010,401.02,0.21,55.1,35.8,138.10,29.20,24.62,36.34,0.04,-272.74,-272.74,-54,561,-937,25.0,2.3,-26.1,25.0,2.4,-25.8,5.73,2.44,-27.3,27.6
2012-04-02 00:53:00,0.0,1.9208,0.0011,401.01,0.21,50.3,35.4,138.10,29.21,24.62,36.34,0.04,-272.74,-272.74,-55,561,-937,25.0,2.3,-26.3,25.0,2.3,-26.0,5.73,2.26,-27.3,27.6
2012-04-02 00:54:00,0.0,1.9201,0.0009,401.17,0.24,55.2,38.1,138.10,29.21,24.62,36.34,0.04,-272.74,-272.74,-55,561,-937,25.0,2.2,-26.5,25.0,2.3,-26.1,5.73,2.47,-27.3,27.6
2012-04-02 00:55:00,0.0,1.9205,0.0010,401.07,0.27,64.5,40.9,138.10,29.22,24.62,36.34,0.04,-272.74,-272.74,-54,561,-937,25.0,2.2,-26.6,25.0,2.3,-26.2,5.73,2.34,-27.3,27.6
2012-04-02 00:56:00,0.0,1.9207,0.0013,401.16,0.22,54.5,39.2,138.10,29.22,24.62,36.34,0.04,-272.74,-272.74,-54,561,-937,25.0,2.2,-26.6,25.0,2.3,-26.2,5.73,2.33,-27.2,27.6
2012-04-02 00:57:00,0.0,1.9202,0.0009,401.13,0.22,58.5,37.2,138.10,29.22,24.62,36.35,0.04,-272.74,-272.74,-55,562,-938,25.0,2.2,-26.5,25.0,2.3,-26.1,5.73,2.48,-27.2,27.6
2012-04-02 00:58:00,0.0,1.9202,0.0011,401.15,0.26,60.7,36.6,138.10,29.23,24.62,36.35,0.04,-272.74,-272.74,-54,561,-938,25.0,2.2,-26.6,25.0,2.3,-26.1,5.73,2.26,-27.2,27.6
2012-04-02 00:59:00,0.0,1.9205,0.0010,401.11,0.21,60.4,41.2,138.10,29.23,24.62,36.34,0.04,-272.74,-272.74,-55,561,-937,25.0,2.2,-26.5,25.0,2.3,-26.0,5.73,2.46,-27.2,27.7
2012-04-02 01:00:00,0.0,1.9205,0.0010,401.21,0.22,59.5,36.9,138.10,29.24,24.62,36.35,0.04,-272.74,-272.74,-55,562,-937,25.0,2.2,-26.6,25.0,2.3,-26.0,5.73,2.37,-27.1,27.7
2012-04-02 01:01:00,0.0,1.9209,0.0008,401.25,0.23,63.2,36.8,138.10,29.24,24.62,36.34,0.04,-272.74,-272.74,-54,562,-938,25.0,2.2,-26.4,25.0,2.3,-26.0,5.73,2.30,-27.1,27.6
2012-04-02 01:02:00,0.0,1.9210,0.0010,401.33,0.22,69.3,33.7,138.10,29.25,24.62,36.34,0.04,-272.74,-272.74,-55,561,-938,25.0,2.3,-26.3,25.1,2.3,-25.9,5.73,2.49,-27.1,27.7
2012-04-02 01:03:00,0.0,1.9208,0.0009,401.36,0.20,59.0,35.0,138.10,29.25,24.62,36.35,0.04,-272.74,-272.74,-55,562,-938,25.0,2.3,-26.1,25.1,2.4,-25.8,5.73,2.27,-27.1,27.6
2012-04-02 01:04:00,0.0,1.9205,0.0011,401.45,0.25,70.3,33.4,138.10,29.26,24.63,36.35,0.04,-272.74,-272.74,-54,562,-938,25.1,2.3,-26.1,25.1,2.4,-25.7,5.73,2.42,-27.1,27.7
2012-04-02 01:05:00,0.0,1.9206,0.0011,401.46,0.21,59.5,31.1,138.10,29.26,24.62,36.35,0.04,-272.74,-272.74,-55,561,-938,25.1,2.3,-25.9,25.1,2.4,-25.5,5.73,2.40,-27.1,27.8
2012-04-02 01:06:00,0.0,1.9208,0.0011,401.47,0.19,67.7,41.1,138.10,29.27,24.63,36.34,0.04,-272.74,-272.74,-55,562,-938,25.1,2.3,-25.9,25.1,2.4,-25.5,5.73,2.28,-27.0,27.7
2012-04-02 01:07:00,0.0,1.9219,0.0011,401.24,0.23,67.9,38.8,138.10,29.27,24.62,36.35,0.04,-272.74,-272.74,-54,562,-938,25.1,2.3,-26.0,25.1,2.4,-25.5,5.73,2.49,-27.0,27.6
2012-04-02 01:08:00,0.0,1.9216,0.0010,401.23,0.25,68.5,34.6,138.10,29.28,24.62,36.35,0.04,-272.74,-272.74,-55,562,-938,25.1,2.3,-26.0,25.1,2.4,-25.5,5.73,2.28,-27.0,27.7
2012-04-02 01:09:00,0.0,1.9209,0.0010,401.24,0.21,65.9,40.6,138.10,29.28,24.62,36.34,0.04,-272.74,-272.74,-55,562,-938,25.1,2.3,-26.0,25.1,2.4,-25.6,5.73,2.41,-27.0,27.7
2012-04-02 01:10:00,0.0,1.9210,0.0010,401.22,0.20,70.9,32.7,138.10,29.29,24.62,36.34,0.04,-272.73,-272.74,-54,562,-938,25.1,2.3,-25.9,25.1,2.4,-25.5,5.73,2.41,-27.0,27.7
2012-04-02 01:11:00,0.0,1.9214,0.0012,401.20,0.26,68.5,37.5,138.10,29.29,24.63,36.35,0.04,-272.74,-272.74,-55,562,-938,25.1,2.3,-25.9,25.1,2.4,-25.4,5.73,2.28,-26.9,27.7
2012-04-02 01:12:00,0.0,1.9213,0.0011,401.17,0.25,74.4,32.2,138.10,29.30,24.63,36.35,0.04,-272.74,-272.74,-55,562,-938,25.1,2.4,-25.6,25.1,2.4,-25.3,5.73,2.49,-26.9,27.8
2012-04-02 01:13:00,0.0,1.9205,0.0010,401.17,0.20,63.8,33.0,138.10,29.30,24.62,36.34,0.04,-272.74,-272.74,-54,562,-938,25.1,2.4,-25.5,25.1,2.5,-25.1,5.73,2.29,-26.9,27.8
2012-04-02 01:14:00,0.0,1.9206,0.0010,401.14,0.21,78.7,39.5,138.10,29.31,24.62,36.35,0.04,-272.74,-272.74,-55,562,-938,25.1,2.4,-25.4,25.1,2.5,-25.0,5.73,2.38,-26.9,27.8
2012-04-02 01:15:00,0.0,1.9206,0.0012,401.11,0.24,71.3,38.5,138.10,29.31,24.62,36.35,0.04,-272.74,-272.74,-55,562,-938,25.1,2.4,-25.4,25.1,2.5,-25.0,5.73,2.43,-26.9,27.8
2012-04-02 01:16:00,0.0,1.9196,0.0009,401.13,0.22,73.1,38.4,138.10,29.32,24.62,36.35,0.04,-272.74,-272.74,-54,562,-938,25.1,2.4,-25.3,25.1,2.5,-25.0,5.73,2.28,-26.8,27.8
2012-04-02 01:17:00,0.0,1.9196,0.0010,401.09,0.20,72.8,42.2,138.10,29.32,24.63,36.35,0.04,-272.74,-272.74,-55,562,-938,25.1,2.5,-25.3,25.1,2.5,-25.0,5.73,2.49,-26.8,27.8
2012-04-02 01:18:00,0.0,1.9201,0.0010,401.10,0.22,74.5,43.8,138.10,29.33,24.62,36.35,0.04,-272.74,-272.74,-55,562,-938,25.2,2.5,-25.1,25.2,2.6,-24.8,5.73,2.30,-26.8,27.9
2012-04-02 01:19:00,0.0,1.9203,0.0011,401.13,0.23,72.0,34.7,138.10,29.33,24.62,36.34,0.04,-272.74,-272.74,-54,562,-938,25.2,2.5,-25.1,25.2,2.6,-24.7,5.73,2.37,-26.8,28.0
2012-04-02 01:20:00,0.0,1.9195,0.0013,401.07,0.23,82.5,40.0,138.10,29.34,24.62,36.35,0.04,-272.74,-272.74,-55,562,-938,25.2,2.5,-25.0,25.2,2.6,-24.6,5.73,2.45,-26.8,27.9
2012-04-02 01:21:00,0.0,1.9186,0.0011,400.95,0.24,73.0,35.6,138.10,29.34,24.62,36.35,0.04,-272.74,-272.74,-55,563,-938,25.2,2.5,-25.0,25.2,2.6,-24.5,5.73,2.26,-26.7,28.0
2012-04-02 01:22:00,0.0,1.9180,0.0011,400.83,0.25,88.9,33.0,138.09,29.35,24.63,36.36,0.04,-272.74,-272.74,-54,562,-938,25.2,2.5,-24.8,25.2,2.7,-24.4,5.73,2.48,-26.7,28.0
2012-04-02 01:23:00,0.0,1.9181,0.0010,400.82,0.20,81.8,38.4,138.10,29.36,24.62,36.36,0.04,-272.74,-272.74,-55,562,-938,25.2,2.6,-24.7,25.2,2.7,-24.4,5.73,2.32,-26.7,27.9
2012-04-02 01:24:00,0.0,1.9182,0.0010,400.85,0.22,81.2,35.9,138.09,29.36,24.62,36.36,0.04,-272.74,-272.74,-55,563,-938,25.2,2.6,-24.7,25.2,2.7,-24.4,5.73,2.35,-26.7,28.0
2012-04-02 01:25:00,0.0,1.9185,0.0011,400.85,0.25,83.6,35.0,138.09,29.37,24.62,36.36,0.04,-272.74,-272.74,-54,562,-938,25.2,2.6,-24.7,25.2,2.7,-24.3,5.73,2.47,-26.7,28.0
2012-04-02 01:26:00,0.0,1.9183,0.0011,400.76,0.22,72.0,34.6,138.09,29.37,24.62,36.36,0.04,-272.74,-272.74,-55,562,-938,25.2,2.6,-24.7,25.2,2.7,-24.2,5.73,2.26,-26.7,28.0
2012-04-02 01:27:00,0.0,1.9182,0.0010,400.87,0.24,75.4,31.2,138.09,29.38,24.63,36.36,0.04,-272.74,-272.74,-55,563,-938,25.2,2.6,-24.8,25.2,2.6,-24.5,5.73,2.46,-26.7,27.9
2012-04-02 01:28:00,0.0,1.9182,0.0010,400.87,0.22,79.0,39.1,138.09,29.39,24.63,36.36,0.04,-272.74,-272.74,-54,563,-938,25.2,2.5,-24.9,25.2,2.6,-24.4,5.73,2.36,-26.6,28.0
2012-04-02 01:29:00,0.0,1.9184,0.0009,400.83,0.22,80.6,35.2,138.09,29.39,24.62,36.36,0.04,-272.74,-272.74,-55,562,-938,25.2,2.5,-24.9,25.3,2.6,-24.6,5.73,2.32,-26.6,27.9
2012-04-02 01:30:00,0.0,1.9183,0.0010,400.86,0.22,84.3,34.4,138.09,29.40,24.62,36.36,0.04,-272.74,-272.74,-55,563,-938,25.2,2.5,-24.9,25.3,2.6,-24.5,5.73,2.48,-26.6,27.9
2012-04-02 01:31:00,0.0,1.9183,0.0010,400.86,0.25,81.5,34.8,138.09,29.41,24.62,36.36,0.04,-272.74,-272.74,-54,563,-938,25.3,2.5,-24.9,25.3,2.6,-24.6,5.73,2.26,-26.6,27.9
2012-04-02 01:32:00,0.0,1.9188,0.0011,400.86,0.24,82.1,44.4,138.09,29.42,24.62,36.37,0.04,-272.74,-272.74,-55,562,-938,25.3,2.5,-25.1,25.3,2.6,-24.5,5.73,2.43,-26.5,27.9
2012-04-02 01:33:00,0.0,1.9194,0.0010,400.96,0.22,78.9,35.4,138.09,29.42,24.62,36.36,0.04,-272.74,-272.74,-55,563,-938,25.3,2.5,-25.1,25.3,2.5,-24.8,5.73,2.40,-26.5,27.9
2012-04-02 01:34:00,0.0,1.9189,0.0011,401.05,0.24,89.9,35.9,138.09,29.43,24.62,36.36,0.04,-272.74,-272.74,-54,563,-938,25.3,2.5,-25.2,25.3,2.5,-24.8,5.73,2.29,-26.5,28.0
2012-04-02 01:35:00,0.0,1.9190,0.0010,400.90,0.21,84.7,36.1,138.09,29.43,24.62,36.37,0.04,-272.74,-272.74,-55,563,-938,25.3,2.4,-25.3,25.3,2.5,-24.8,5.73,2.49,-26.5,27.9
2012-04-02 01:36:00,0.0,1.9185,0.0010,401.05,0.22,87.7,34.0,138.09,29.44,24.63,36.36,0.04,-272.74,-272.74,-55,563,-938,25.3,2.4,-25.2,25.3,2.5,-24.9,5.73,2.27,-26.5,28.0
2012-04-02 01:37:00,0.0,1.9177,0.0009,400.91,0.22,81.8,36.5,138.09,29.44,24.63,36.36,0.04,-272.74,-272.74,-54,563,-938,25.3,2.4,-25.2,25.3,2.5,-24.9,5.73,2.41,-26.4,28.1
2012-04-02 01:38:00,0.0,1.9177,0.0010,400.89,0.25,84.2,36.2,138.09,29.45,24.62,36.36,0.04,-272.74,-272.74,-55,563,-938,25.3,2.4,-25.4,25.3,2.5,-24.9,5.73,2.41,-26.4,28.0
2012-04-02 01:39:00,0.0,1.9182,0.0011,400.93,0.24,85.5,42.3,138.09,29.46,24.62,36.36,0.04,-272.74,-272.74,-55,563,-938,25.3,2.4,-25.2,25.3,2.5,-24.9,5.73,2.27,-26.4,28.1
2012-04-02 01:40:00,0.0,1.9178,0.0011,400.78,0.30,84.9,37.9,138.09,29.46,24.62,36.37,0.04,-272.74,-272.74,-54,563,-938,25.3,2.4,-25.3,25.3,2.5,-24.9,5.73,2.48,-26.4,28.1
2012-04-02 01:41:00,0.0,1.9174,0.0010,400.80,0.25,91.0,35.1,138.09,29.47,24.63,36.37,0.04,-272.74,-272.74,-55,563,-938,25.3,2.4,-25.2,25.3,2.5,-24.9,5.73,2.30,-26.4,28.2
2012-04-02 01:42:00,0.0,1.9183,0.0010,400.83,0.27,87.7,35.6,138.09,29.48,24.62,36.36,0.04,-272.74,-272.74,-55,563,-938,25.4,2.4,-25.3,25.4,2.5,-24.9,5.73,2.39,-26.3,28.2
2012-04-02 01:43:00,0.0,1.9181,0.0011,400.84,0.19,94.5,37.4,138.09,29.48,24.62,36.37,0.04,-272.74,-272.74,-54,563,-938,25.4,2.5,-25.2,25.4,2.5,-24.9,5.73,2.43,-26.3,28.2
2012-04-02 01:44:00,0.0,1.9187,0.0010,400.89,0.25,81.3,40.0,138.09,29.49,24.62,36.36,0.04,-272.74,-272.73,-55,563,-938,25.4,2.4,-25.4,25.4,2.5,-25.0,5.73,2.26,-26.3,28.2
2012-04-02 01:45:00,0.0,1.9184,0.0009,400.91,0.27,85.8,38.6,138.09,29.49,24.62,36.36,0.04,-272.74,-272.74,-55,564,-939,25.4,2.4,-25.3,25.3,2.5,-25.0,5.73,2.48,-26.3,28.2
2012-04-02 01:46:00,0.0,1.9189,0.0008,400.86,0.22,88.8,39.8,138.09,29.50,24.62,36.37,0.04,-272.74,-272.74,-54,564,-939,25.4,2.4,-25.5,25.4,2.5,-25.1,5.73,2.32,-26.3,28.2
2012-04-02 01:47:00,0.0,1.9193,0.0010,400.91,0.24,94.1,29.8,138.09,29.51,24.62,36.37,0.04,-272.74,-272.74,-55,563,-939,25.4,2.3,-25.7,25.4,2.4,-25.3,5.73,2.35,-26.2,28.1
2012-04-02 01:48:00,0.0,1.9188,0.0011,400.91,0.24,100.1,37.7,138.09,29.52,24.62,36.36,0.04,-272.74,-272.74,-55,563,-939,25.4,2.3,-25.8,25.4,2.4,-25.5,5.73,2.46,-26.2,28.1
2012-04-02 01:49:00,0.0,1.9184,0.0009,400.91,0.22,97.9,38.5,138.09,29.52,24.63,36.36,0.04,-272.74,-272.74,-54,564,-939,25.4,2.3,-25.9,25.4,2.4,-25.4,5.73,2.26,-26.2,28.1
2012-04-02 01:50:00,0.0,1.9189,0.0009,400.94,0.25,100.6,36.1,138.09,29.53,24.62,36.36,0.04,-272.74,-272.74,-55,563,-939,25.5,2.3,-25.9,25.4,2.4,-25.5,5.73,2.47,-26.2,28.2
2012-04-02 01:51:00,0.0,1.9189,0.0011,400.88,0.28,90.2,34.6,138.09,29.54,24.62,36.37,0.04,-272.74,-272.74,-55,564,-939,25.4,2.3,-25.9,25.4,2.4,-25.5,5.73,2.34,-26.2,28.2
2012-04-02 01:52:00,0.0,1.9183,0.0010,400.77,0.23,96.9,32.0,138.09,29.54,24.62,36.37,0.04,-272.74,-272.74,-54,564,-939,25.4,2.3,-26.0,25.5,2.4,-25.5,5.73,2.32,-26.1,28.2
2012-04-02 01:53:00,0.0,1.9181,0.0012,400.78,0.23,91.7,31.7,138.09,29.55,24.62,36.37,0.04,-272.74,-272.74,-55,564,-938,25.5,2.3,-25.9,25.5,2.4,-25.5,5.73,2.47,-26.1,28.1
2012-04-02 01:54:00,0.0,1.9181,0.0009,400.89,0.19,98.3,37.3,138.09,29.56,24.62,36.37,0.04,-272.73,-272.74,-55,564,-938,25.5,2.3,-25.8,25.4,2.4,-25.5,5.73,2.25,-26.1,28.1
2012-04-02 01:55:00,0.0,1.9179,0.0010,400.96,0.27,103.2,35.5,138.09,29.56,24.63,36.36,0.04,-272.74,-272.74,-54,563,-939,25.5,2.3,-25.7,25.5,2.4,-25.5,5.73,2.45,-26.1,28.1
2012-04-02 01:56:00,0.0,1.9178,0.0009,400.94,0.22,102.5,36.7,138.09,29.57,24.62,36.36,0.04,-272.74,-272.74,-55,564,-939,25.5,2.3,-25.8,25.5,2.4,-25.4,5.73,2.36,-26.1,28.2
2012-04-02 01:57:00,0.0,1.9175,0.0011,400.92,0.25,93.1,37.4,138.09,29.58,24.62,36.36,0.04,-272.74,-272.74,-55,564,-939,25.5,2.3,-25.8,25.5,2.3,-25.5,5.73,2.31,-26.0,28.2
2012-04-02 01:58:00,0.0,1.9176,0.0009,400.93,0.21,102.2,31.8,138.09,29.58,24.62,36.37,0.04,-272.74,-272.74,-55,564,-939,25.5,2.3,-25.7,25.5,2.4,-25.3,5.73,2.48,-26.0,28.3
2012-04-02 01:59:00,0.0,1.9181,0.0010,400.94,0.30,99.3,33.0,138.09,29.59,24.62,36.37,0.04,-272.74,-272.74,-55,564,-939,25.5,2.3,-25.6,25.5,2.4,-25.2,5.73,2.26,-26.0,28.2
2012-04-02 02:00:00,0.0,1.9176,0.0009,400.92,0.25,98.3,40.5,138.09,29.60,24.62,36.37,0.04,-272.74,-272.74,-55,564,-939,25.5,2.3,-25.6,25.5,2.4,-25.2,5.73,2.44,-26.0,28.3
2012-04-02 02:01:00,0.0,1.9173,0.0008,400.94,0.27,109.7,33.9,138.09,29.60,24.62,36.37,0.04,-272.73,-272.74,-55,564,-939,25.5,2.4,-25.5,25.5,2.4,-25.2,5.73,2.37,-26.0,28.2
2012-04-02 02:02:00,0.0,1.9170,0.0011,400.92,0.27,103.0,32.5,138.08,29.61,24.62,36.37,0.04,-272.74,-272.74,-55,564,-939,25.5,2.3,-25.6,25.6,2.4,-25.2,5.73,2.30,-26.0,28.2
2012-04-02 02:03:00,0.0,1.9166,0.0010,400.87,0.25,103.8,29.6,138.08,29.62,24.62,36.37,0.04,-272.74,-272.74,-55,564,-939,25.6,2.3,-25.6,25.6,2.4,-25.3,5.73,2.49,-26.0,28.3
2012-04-02 02:04:00,0.0,1.9164,0.0010,400.94,0.26,105.4,34.0,138.08,29.63,24.63,36.36,0.04,-272.73,-272.74,-55,564,-939,25.6,2.3,-25.5,25.6,2.4,-25.0,5.73,2.26,-25.9,28.3
2012-04-02 02:05:00,0.0,1.9164,0.0010,400.96,0.23,104.7,32.0,138.09,29.64,24.62,36.37,0.04,-272.74,-272.74,-55,564,-939,25.6,2.3,-25.6,25.6,2.4,-25.0,5.73,2.42,-25.9,28.3
2012-04-02 02:06:00,0.0,1.9164,0.0011,401.07,0.26,106.6,28.3,138.08,29.64,24.62,36.36,0.04,-272.73,-272.74,-55,564,-939,25.6,2.4,-25.4,25.6,2.5,-25.0,5.73,2.40,-25.9,28.3
2012-04-02 02:07:00,0.0,1.9162,0.0009,400.89,0.23,102.6,34.3,138.08,29.65,24.62,36.38,0.04,-272.74,-272.74,-55,564,-939,25.6,2.4,-25.4,25.6,2.5,-25.0,5.73,2.29,-25.9,28.3
2012-04-02 02:08:00,0.0,1.9163,0.0008,401.03,0.23,101.4,34.2,138.08,29.66,24.62,36.36,0.04,-272.74,-272.74,-55,564,-939,25.6,2.3,-25.5,25.6,2.5,-24.9,5.73,2.49,-25.9,28.2
2012-04-02 02:09:00,0.0,1.9165,0.0010,400.99,0.24,107.4,34.3,138.08,29.67,24.62,36.37,0.04,-272.74,-272.74,-55,565,-939,25.6,2.4,-25.3,25.6,2.5,-24.9,5.73,2.26,-25.9,28.2
2012-04-02 02:10:00,0.0,1.9164,0.0011,400.96,0.23,108.9,36.1,138.08,29.68,24.62,36.37,0.04,-272.74,-272.74,-55,564,-939,25.6,2.4,-25.3,25.6,2.5,-24.9,5.73,2.43,-25.9,28.3
2012-04-02 02:11:00,0.0,1.9167,0.0010,400.88,0.25,98.3,34.7,138.08,29.68,24.62,36.38,0.04,-272.74,-272.74,-55,564,-939,25.7,2.4,-25.3,25.6,2.5,-24.8,5.73,2.38,-25.8,28.2
2012-04-02 02:12:00,0.0,1.9164,0.0008,401.03,0.21,112.7,35.6,138.08,29.69,24.62,36.37,0.04,-272.74,-272.74,-55,565,-939,25.6,2.4,-25.1,25.7,2.5,-24.7,5.73,2.30,-25.8,28.3
2012-04-02 02:13:00,0.0,1.9159,0.0010,400.97,0.25,101.4,34.8,138.08,29.70,24.63,36.37,0.04,-272.74,-272.74,-55,564,-939,25.7,2.4,-25.0,25.7,2.5,-24.6,5.73,2.48,-25.8,28.3
2012-04-02 02:14:00,0.0,1.9159,0.0010,401.03,0.25,95.9,35.7,138.08,29.70,24.63,36.37,0.04,-272.74,-272.74,-55,565,-939,25.7,2.5,-24.9,25.7,2.6,-24.4,5.73,2.26,-25.8,28.4
2012-04-02 02:15:00,0.0,1.9160,0.0010,401.05,0.26,98.6,32.6,138.08,29.71,24.63,36.36,0.04,-272.74,-272.74,-55,565,-939,25.7,2.5,-24.8,25.7,2.6,-24.4,5.73,2.44,-25.8,28.4
2012-04-02 02:16:00,0.0,1.9163,0.0010,400.94,0.22,103.5,34.3,138.08,29.72,24.62,36.37,0.04,-272.74,-272.74,-55,564,-939,25.7,2.5,-24.7,25.7,2.6,-24.4,5.73,2.37,-25.8,28.4
2012-04-02 02:17:00,0.0,1.9165,0.0010,400.99,0.26,103.2,32.8,138.08,29.72,24.62,36.37,0.04,-272.74,-272.74,-55,565,-939,25.7,2.5,-24.7,25.7,2.6,-24.5,5.73,2.30,-25.8,28.5